When you browse on this site, cookies collect data to enhance your experience and personalize the content and advertising you see.
Visit our Privacy Policy to learn more. By continuing to use the site, you agree to this use of cookies and data.
  • In United Kingdom
  • List of Countries
  • For 7 days
  • Water Temperature
  • Satellite Maps
  • Weather Map
  • Weather Widgets
  • user-avatar
    Login

    Hourly Weather Mira

    Today, 19 March, Tuesday

    Time Temperature Precipitation Wind Pressure Humidity
    00:00 +7°C° 0 mm 4 mps 766 mmHg 62%
    01:00 +7°C° 0 mm 4 mps 766 mmHg 62%
    02:00 +6°C° 0 mm 4 mps 766 mmHg 61%
    03:00 +6°C° 0 mm 4 mps 766 mmHg 60%
    04:00 +5°C° 0 mm 4 mps 766 mmHg 59%
    05:00 +5°C° 0 mm 4 mps 766 mmHg 58%
    06:00 +5°C° 0 mm 3 mps 766 mmHg 57%
    07:00 +5°C° 0 mm 3 mps 767 mmHg 56%
    08:00 +7°C° 0 mm 3 mps 767 mmHg 51%
    09:00 +8°C° 0 mm 3 mps 767 mmHg 47%
    10:00 +10°C° 0 mm 3 mps 767 mmHg 43%
    11:00 +11°C° 0 mm 4 mps 767 mmHg 40%
    12:00 +11°C° 0 mm 4 mps 767 mmHg 38%
    13:00 +12°C° 0 mm 4 mps 767 mmHg 36%
    14:00 +12°C° 0 mm 4 mps 767 mmHg 37%
    15:00 +12°C° 0 mm 5 mps 767 mmHg 38%
    16:00 +12°C° 0 mm 5 mps 767 mmHg 39%
    17:00 +12°C° 0 mm 5 mps 767 mmHg 44%
    18:00 +10°C° 0 mm 5 mps 768 mmHg 49%
    19:00 +9°C° 0 mm 6 mps 769 mmHg 54%
    20:00 +8°C° 0 mm 6 mps 769 mmHg 55%
    21:00 +8°C° 0 mm 6 mps 770 mmHg 56%
    22:00 +8°C° 0 mm 5 mps 771 mmHg 57%
    23:00 +7°C° 0 mm 5 mps 771 mmHg 59%

    Tomorrow, 20 March, Wednesday

    Time Temperature Precipitation Wind Pressure Humidity
    00:00 +7°C° 0 mm 5 mps 772 mmHg 60%
    01:00 +7°C° 0 mm 5 mps 772 mmHg 62%
    02:00 +6°C° 0 mm 5 mps 772 mmHg 62%
    03:00 +6°C° 0 mm 4 mps 772 mmHg 63%
    04:00 +5°C° 0 mm 4 mps 772 mmHg 63%
    05:00 +5°C° 0 mm 4 mps 772 mmHg 62%
    06:00 +5°C° 0 mm 4 mps 773 mmHg 61%
    07:00 +5°C° 0 mm 4 mps 773 mmHg 60%
    08:00 +6°C° 0 mm 4 mps 773 mmHg 54%
    09:00 +8°C° 0 mm 4 mps 773 mmHg 49%
    10:00 +10°C° 0 mm 4 mps 773 mmHg 44%
    11:00 +11°C° 0 mm 4 mps 773 mmHg 41%
    12:00 +12°C° 0 mm 4 mps 772 mmHg 38%
    13:00 +13°C° 0 mm 4 mps 772 mmHg 35%
    14:00 +13°C° 0 mm 3 mps 772 mmHg 34%
    15:00 +14°C° 0 mm 3 mps 772 mmHg 33%
    16:00 +14°C° 0 mm 3 mps 772 mmHg 33%
    17:00 +13°C° 0 mm 3 mps 772 mmHg 38%
    18:00 +12°C° 0 mm 3 mps 773 mmHg 44%
    19:00 +10°C° 0 mm 3 mps 773 mmHg 49%
    20:00 +10°C° 0 mm 3 mps 774 mmHg 51%
    21:00 +10°C° 0 mm 4 mps 774 mmHg 54%
    22:00 +8°C° 0 mm 4 mps 775 mmHg 56%
    23:00 +8°C° 0 mm 4 mps 775 mmHg 57%

    Day after tomorrow, 21 March, Thursday

    Time Temperature Precipitation Wind Pressure Humidity
    00:00 +7°C° 0 mm 4 mps 775 mmHg 58%
    01:00 +7°C° 0 mm 4 mps 775 mmHg 59%
    02:00 +6°C° 0 mm 4 mps 775 mmHg 60%
    03:00 +7°C° 0 mm 3 mps 774 mmHg 61%
    04:00 +7°C° 0 mm 3 mps 774 mmHg 63%
    05:00 +5°C° 0 mm 3 mps 774 mmHg 63%
    06:00 +5°C° 0 mm 3 mps 774 mmHg 64%
    07:00 +5°C° 0 mm 3 mps 774 mmHg 65%
    08:00 +8°C° 0 mm 3 mps 774 mmHg 59%
    09:00 +10°C° 0 mm 3 mps 774 mmHg 52%
    10:00 +11°C° 0 mm 3 mps 774 mmHg 45%
    11:00 +13°C° 0 mm 3 mps 773 mmHg 41%
    12:00 +14°C° 0 mm 3 mps 773 mmHg 37%
    13:00 +16°C° 0 mm 3 mps 773 mmHg 32%
    14:00 +16°C° 0 mm 3 mps 772 mmHg 32%
    15:00 +16°C° 0 mm 3 mps 772 mmHg 31%
    16:00 +17°C° 0 mm 3 mps 772 mmHg 30%
    17:00 +15°C° 0 mm 2 mps 772 mmHg 35%
    18:00 +14°C° 0 mm 2 mps 772 mmHg 39%
    19:00 +13°C° 0 mm 1 mps 772 mmHg 44%
    20:00 +12°C° 0 mm 1 mps 773 mmHg 47%
    21:00 +12°C° 0 mm 2 mps 773 mmHg 51%
    22:00 +10°C° 0 mm 2 mps 773 mmHg 54%
    23:00 +10°C° 0 mm 2 mps 773 mmHg 56%

    22 March, Friday

    Time Temperature Precipitation Wind Pressure Humidity
    00:00 +9°C° 0 mm 2 mps 773 mmHg 59%
    01:00 +9°C° 0 mm 2 mps 773 mmHg 61%
    02:00 +8°C° 0 mm 2 mps 773 mmHg 62%
    03:00 +8°C° 0 mm 2 mps 773 mmHg 64%
    04:00 +8°C° 0 mm 2 mps 773 mmHg 65%
    05:00 +8°C° 0 mm 2 mps 773 mmHg 66%
    06:00 +9°C° 0 mm 1 mps 773 mmHg 66%
    07:00 +9°C° 0 mm 1 mps 773 mmHg 67%
    08:00 +10°C° 0 mm 1 mps 772 mmHg 60%
    09:00 +12°C° 0 mm 1 mps 772 mmHg 54%
    10:00 +14°C° 0 mm 1 mps 772 mmHg 47%
    11:00 +15°C° 0 mm 1 mps 772 mmHg 43%
    12:00 +16°C° 0 mm 1 mps 771 mmHg 39%
    13:00 +19°C° 0 mm 1 mps 771 mmHg 35%
    14:00 +19°C° 0 mm 1 mps 771 mmHg 33%
    15:00 +19°C° 0 mm 1 mps 770 mmHg 32%
    16:00 +19°C° 0 mm 1 mps 770 mmHg 30%
    17:00 +18°C° 0 mm 1 mps 770 mmHg 33%
    18:00 +15°C° 0 mm 1 mps 771 mmHg 36%
    19:00 +14°C° 0 mm 1 mps 771 mmHg 40%
    20:00 +13°C° 0 mm 1 mps 771 mmHg 41%
    21:00 +12°C° 0 mm 1 mps 772 mmHg 43%
    22:00 +12°C° 0 mm 1 mps 772 mmHg 45%
    23:00 +11°C° 0 mm 1 mps 772 mmHg 46%

    23 March, Saturday

    Time Temperature Precipitation Wind Pressure Humidity
    00:00 +11°C° 0 mm 1 mps 772 mmHg 48%
    01:00 +11°C° 0 mm 1 mps 772 mmHg 50%
    02:00 +11°C° 0 mm 1 mps 771 mmHg 51%
    03:00 +9°C° 0 mm 0 mps 771 mmHg 53%
    04:00 +9°C° 0 mm 0 mps 771 mmHg 54%
    05:00 +9°C° 0 mm 0 mps 771 mmHg 56%
    06:00 +9°C° 0 mm 0 mps 771 mmHg 57%
    07:00 +9°C° 0 mm 0 mps 771 mmHg 58%
    08:00 +11°C° 0 mm 0 mps 771 mmHg 53%
    09:00 +14°C° 0 mm 1 mps 771 mmHg 47%
    10:00 +16°C° 0 mm 1 mps 770 mmHg 42%
    11:00 +18°C° 0 mm 1 mps 770 mmHg 39%
    12:00 +19°C° 0 mm 1 mps 770 mmHg 36%
    13:00 +20°C° 0 mm 1 mps 770 mmHg 33%
    14:00 +21°C° 0 mm 1 mps 769 mmHg 33%
    15:00 +21°C° 0 mm 1 mps 769 mmHg 32%
    16:00 +22°C° 0 mm 1 mps 768 mmHg 31%
    17:00 +20°C° 0 mm 1 mps 769 mmHg 35%
    18:00 +18°C° 0 mm 1 mps 769 mmHg 39%
    19:00 +16°C° 0 mm 2 mps 769 mmHg 43%
    20:00 +15°C° 0 mm 2 mps 769 mmHg 46%
    21:00 +14°C° 0 mm 2 mps 770 mmHg 49%
    22:00 +14°C° 0 mm 2 mps 770 mmHg 52%
    23:00 +13°C° 0 mm 1 mps 770 mmHg 54%

    24 March, Sunday

    Time Temperature Precipitation Wind Pressure Humidity
    00:00 +13°C° 0 mm 1 mps 769 mmHg 56%
    01:00 +12°C° 0 mm 1 mps 769 mmHg 58%
    02:00 +12°C° 0 mm 1 mps 769 mmHg 59%
    03:00 +11°C° 0 mm 1 mps 769 mmHg 61%
    04:00 +10°C° 0 mm 0 mps 769 mmHg 63%
    05:00 +10°C° 0 mm 0 mps 769 mmHg 64%
    06:00 +10°C° 0 mm 0 mps 769 mmHg 65%
    07:00 +10°C° 0 mm 0 mps 769 mmHg 66%
    08:00 +13°C° 0 mm 1 mps 769 mmHg 61%
    09:00 +14°C° 0 mm 1 mps 768 mmHg 56%
    10:00 +16°C° 0 mm 1 mps 768 mmHg 51%
    11:00 +18°C° 0 mm 1 mps 768 mmHg 48%
    12:00 +20°C° 0 mm 1 mps 767 mmHg 45%
    13:00 +20°C° 0 mm 2 mps 767 mmHg 42%
    14:00 +20°C° 0 mm 2 mps 767 mmHg 41%
    15:00 +21°C° 0 mm 2 mps 766 mmHg 39%
    16:00 +21°C° 0 mm 2 mps 766 mmHg 38%
    17:00 +19°C° 0 mm 2 mps 766 mmHg 43%
    18:00 +18°C° 0 mm 2 mps 766 mmHg 48%
    19:00 +16°C° 0 mm 2 mps 766 mmHg 54%
    20:00 +15°C° 0 mm 2 mps 766 mmHg 57%
    21:00 +14°C° 0 mm 2 mps 766 mmHg 61%
    22:00 +13°C° 0 mm 2 mps 767 mmHg 64%
    23:00 +13°C° 0 mm 1 mps 767 mmHg 66%
    Show more